When you browse on this site, cookies collect data to enhance your experience and personalize the content and advertising you see.
Visit our Privacy Policy to learn more. By continuing to use the site, you agree to this use of cookies and data.
  • In United Kingdom
  • List of Countries
  • For 7 days
  • Water Temperature
  • Satellite Maps
  • Weather Map
  • Weather Widgets
  • user-avatar
    Login

    Hourly Weather Bregenz

    Today, 17 February, Sunday

    Time Temperature Precipitation Wind Pressure Humidity
    00:00 -2°C° 0 mm 2 mps 651 mmHg 57%
    01:00 -3°C° 0 mm 2 mps 651 mmHg 55%
    02:00 -3°C° 0 mm 2 mps 651 mmHg 55%
    03:00 -3°C° 0 mm 2 mps 650 mmHg 55%
    04:00 -3°C° 0 mm 2 mps 650 mmHg 55%
    05:00 -3°C° 0 mm 2 mps 650 mmHg 55%
    06:00 -3°C° 0 mm 2 mps 650 mmHg 55%
    07:00 -3°C° 0 mm 2 mps 650 mmHg 55%
    08:00 -2°C° 0 mm 2 mps 650 mmHg 56%
    09:00 +1°C° 0 mm 2 mps 651 mmHg 56%
    10:00 +4°C° 0 mm 1 mps 651 mmHg 57%
    11:00 +6°C° 0 mm 1 mps 651 mmHg 57%
    12:00 +7°C° 0 mm 1 mps 651 mmHg 58%
    13:00 +8°C° 0 mm 0 mps 651 mmHg 59%
    14:00 +8°C° 0 mm 0 mps 651 mmHg 62%
    15:00 +7°C° 0 mm 0 mps 651 mmHg 66%
    16:00 +7°C° 0 mm 0 mps 650 mmHg 70%
    17:00 +6°C° 0 mm 1 mps 650 mmHg 70%
    18:00 +4°C° 0 mm 1 mps 650 mmHg 71%
    19:00 +1°C° 0 mm 2 mps 649 mmHg 71%
    20:00 -1°C° 0 mm 2 mps 649 mmHg 69%
    21:00 -1°C° 0 mm 2 mps 649 mmHg 66%
    22:00 -2°C° 0 mm 2 mps 649 mmHg 64%
    23:00 -2°C° 0 mm 2 mps 649 mmHg 62%

    Tomorrow, 18 February, Monday

    Time Temperature Precipitation Wind Pressure Humidity
    00:00 -3°C° 0 mm 2 mps 649 mmHg 60%
    01:00 -3°C° 0 mm 2 mps 648 mmHg 58%
    02:00 -3°C° 0 mm 2 mps 648 mmHg 58%
    03:00 -3°C° 0 mm 2 mps 648 mmHg 57%
    04:00 -4°C° 0 mm 2 mps 648 mmHg 57%
    05:00 -4°C° 0 mm 2 mps 648 mmHg 57%
    06:00 -4°C° 0 mm 2 mps 648 mmHg 57%
    07:00 -4°C° 0 mm 2 mps 647 mmHg 57%
    08:00 -2°C° 0 mm 2 mps 648 mmHg 57%
    09:00 +2°C° 0 mm 1 mps 648 mmHg 56%
    10:00 +3°C° 0 mm 1 mps 648 mmHg 56%
    11:00 +5°C° 0 mm 1 mps 648 mmHg 56%
    12:00 +6°C° 0 mm 1 mps 649 mmHg 55%
    13:00 +7°C° 0 mm 0 mps 649 mmHg 55%
    14:00 +6°C° 0 mm 0 mps 648 mmHg 59%
    15:00 +6°C° 0 mm 0 mps 648 mmHg 62%
    16:00 +6°C° 0 mm 0 mps 648 mmHg 66%
    17:00 +5°C° 0 mm 1 mps 647 mmHg 68%
    18:00 +3°C° 0 mm 1 mps 647 mmHg 70%
    19:00 +2°C° 0 mm 1 mps 647 mmHg 72%
    20:00 -1°C° 0 mm 2 mps 647 mmHg 71%
    21:00 -1°C° 0 mm 2 mps 647 mmHg 70%
    22:00 -2°C° 0 mm 2 mps 647 mmHg 69%
    23:00 -2°C° 0 mm 2 mps 647 mmHg 67%

    Day after tomorrow, 19 February, Tuesday

    Time Temperature Precipitation Wind Pressure Humidity
    00:00 -3°C° 0 mm 2 mps 647 mmHg 65%
    01:00 -3°C° 0 mm 2 mps 647 mmHg 63%
    02:00 -3°C° 0 mm 2 mps 647 mmHg 62%
    03:00 -3°C° 0 mm 2 mps 647 mmHg 61%
    04:00 -3°C° 0 mm 2 mps 647 mmHg 60%
    05:00 -4°C° 0 mm 2 mps 647 mmHg 59%
    06:00 -4°C° 0 mm 2 mps 647 mmHg 59%
    07:00 -4°C° 0 mm 2 mps 647 mmHg 59%
    08:00 -2°C° 0 mm 2 mps 647 mmHg 58%
    09:00 +1°C° 0 mm 1 mps 648 mmHg 57%
    10:00 +3°C° 0 mm 1 mps 648 mmHg 56%
    11:00 +4°C° 0 mm 1 mps 649 mmHg 54%
    12:00 +5°C° 0 mm 1 mps 649 mmHg 53%
    13:00 +6°C° 0 mm 1 mps 649 mmHg 52%
    14:00 +6°C° 0 mm 1 mps 649 mmHg 55%
    15:00 +5°C° 0 mm 1 mps 648 mmHg 57%
    16:00 +5°C° 0 mm 1 mps 648 mmHg 60%
    17:00 +3°C° 0 mm 1 mps 648 mmHg 66%
    18:00 +2°C° 0 mm 1 mps 648 mmHg 72%
    19:00 0°C° 0 mm 1 mps 648 mmHg 77%
    20:00 0°C° 0 mm 1 mps 648 mmHg 77%
    21:00 -1°C° 0 mm 1 mps 648 mmHg 77%
    22:00 -3°C° 0 mm 2 mps 648 mmHg 77%
    23:00 -3°C° 0 mm 2 mps 648 mmHg 75%

    20 February, Wednesday

    Time Temperature Precipitation Wind Pressure Humidity
    00:00 -3°C° 0 mm 2 mps 648 mmHg 74%
    01:00 -4°C° 0 mm 2 mps 648 mmHg 72%
    02:00 -4°C° 0 mm 2 mps 648 mmHg 70%
    03:00 -4°C° 0 mm 2 mps 648 mmHg 68%
    04:00 -4°C° 0 mm 2 mps 648 mmHg 66%
    05:00 -4°C° 0 mm 2 mps 648 mmHg 65%
    06:00 -4°C° 0 mm 2 mps 648 mmHg 63%
    07:00 -4°C° 0 mm 2 mps 648 mmHg 62%
    08:00 -1°C° 0 mm 1 mps 649 mmHg 59%
    09:00 +1°C° 0 mm 1 mps 649 mmHg 55%
    10:00 +3°C° 0 mm 1 mps 650 mmHg 52%
    11:00 +4°C° 0 mm 1 mps 650 mmHg 51%
    12:00 +4°C° 0 mm 0 mps 651 mmHg 51%
    13:00 +6°C° 0 mm 0 mps 651 mmHg 50%
    14:00 +5°C° 0 mm 0 mps 651 mmHg 53%
    15:00 +5°C° 0 mm 0 mps 650 mmHg 55%
    16:00 +5°C° 0 mm 0 mps 650 mmHg 58%
    17:00 +4°C° 0 mm 1 mps 650 mmHg 63%
    18:00 +2°C° 0 mm 1 mps 650 mmHg 68%
    19:00 +1°C° 0 mm 1 mps 650 mmHg 73%
    20:00 0°C° 0 mm 1 mps 650 mmHg 74%
    21:00 0°C° 0 mm 1 mps 650 mmHg 74%
    22:00 -2°C° 0 mm 2 mps 650 mmHg 75%
    23:00 -2°C° 0 mm 2 mps 650 mmHg 74%

    21 February, Thursday

    Time Temperature Precipitation Wind Pressure Humidity
    00:00 -3°C° 0 mm 2 mps 650 mmHg 74%
    01:00 -3°C° 0 mm 2 mps 650 mmHg 73%
    02:00 -3°C° 0 mm 2 mps 650 mmHg 72%
    03:00 -3°C° 0 mm 2 mps 650 mmHg 71%
    04:00 -3°C° 0 mm 2 mps 650 mmHg 70%
    05:00 -3°C° 0 mm 2 mps 650 mmHg 70%
    06:00 -3°C° 0 mm 2 mps 650 mmHg 69%
    07:00 -1°C° 0 mm 1 mps 651 mmHg 69%
    08:00 +1°C° 0 mm 1 mps 651 mmHg 66%
    09:00 +2°C° 0 mm 1 mps 652 mmHg 63%
    10:00 +4°C° 0 mm 1 mps 652 mmHg 60%
    11:00 +5°C° 0 mm 1 mps 652 mmHg 58%
    12:00 +5°C° 0 mm 0 mps 653 mmHg 57%
    13:00 +6°C° 0 mm 0 mps 653 mmHg 56%
    14:00 +6°C° 0 mm 0 mps 652 mmHg 57%
    15:00 +7°C° 0 mm 1 mps 652 mmHg 59%
    16:00 +7°C° 0 mm 1 mps 652 mmHg 61%
    17:00 +5°C° 0 mm 1 mps 652 mmHg 66%
    18:00 +2°C° 0 mm 0 mps 652 mmHg 72%
    19:00 +1°C° 0 mm 0 mps 652 mmHg 77%
    20:00 +1°C° 0 mm 1 mps 652 mmHg 77%
    21:00 +1°C° 0 mm 1 mps 652 mmHg 77%
    22:00 +1°C° 0 mm 1 mps 652 mmHg 77%
    23:00 0°C° 0 mm 1 mps 652 mmHg 77%

    22 February, Friday

    Time Temperature Precipitation Wind Pressure Humidity
    00:00 0°C° 0 mm 1 mps 652 mmHg 77%
    01:00 0°C° 0 mm 1 mps 652 mmHg 77%
    02:00 0°C° 0 mm 1 mps 652 mmHg 77%
    03:00 0°C° 0 mm 1 mps 652 mmHg 77%
    04:00 -1°C° 0 mm 1 mps 652 mmHg 77%
    05:00 -1°C° 0 mm 1 mps 652 mmHg 77%
    06:00 -1°C° 0 mm 1 mps 653 mmHg 77%
    07:00 -1°C° 0 mm 1 mps 653 mmHg 77%
    08:00 +1°C° 0 mm 1 mps 653 mmHg 72%
    09:00 +1°C° 0 mm 0 mps 654 mmHg 68%
    10:00 +3°C° 0 mm 0 mps 654 mmHg 64%
    11:00 +4°C° 0 mm 0 mps 654 mmHg 62%
    12:00 +6°C° 0 mm 1 mps 654 mmHg 59%
    13:00 +7°C° 0 mm 1 mps 654 mmHg 57%
    14:00 +7°C° 0 mm 1 mps 654 mmHg 60%
    15:00 +7°C° 0 mm 1 mps 654 mmHg 63%
    16:00 +5°C° 0 mm 2 mps 654 mmHg 66%
    17:00 +5°C° 0 mm 1 mps 654 mmHg 74%
    18:00 +3°C° 0 mm 1 mps 653 mmHg 82%
    19:00 +2°C° 0 mm 1 mps 653 mmHg 91%
    20:00 +1°C° 0 mm 1 mps 653 mmHg 91%
    21:00 +1°C° 0 mm 1 mps 653 mmHg 91%
    22:00 +1°C° 0 mm 1 mps 653 mmHg 91%
    23:00 0°C° 0 mm 1 mps 653 mmHg 90%
    Show more